Wind_Speed
52 51 48 47 51 48 49 46 40 40 38 36 35 35 34 27 22 21 28 32 36 33 30 29 27 23 22 20 21 19 18 17 17 17 18 22 20 16 15 14 18 16 14 15 16 17 17 17 16
59 59 58 58 57 55 56 58 51 45 41 41 41 41 41 34 31 24 31 31 31 27 27 27 24 23 22 20 20 19 18 18 17 19 19 17 17 16 15 13 13 14 12 11 13 15 17 21 22
64 66 65 62 61 53 56 61 66 54 48 45 44 43 44 41 39 33 35 34 36 33 29 29 27 25 25 25 23 24 24 24 23 23 24 22 19 18 17 17 15 18 16 16 16 16 18 22 26
67 66 67 64 56 60 60 63 67 63 58 52 46 47 44 45 43 39 43 40 31 34 33 34 34 34 32 30 30 30 30 30 30 30 28 26 26 24 22 21 20 20 21 20 22 22 22 23 24
70 66 64 62 67 67 69 71 76 71 66 61 54 46 47 46 46 49 50 48 47 39 38 40 39 37 38 38 37 37 35 35 35 35 34 33 31 31 30 28 28 28 28 28 27 27 27 27 28
83 78 71 66 63 71 73 78 81 75 72 68 63 55 49 47 48 51 55 55 53 50 48 46 44 42 41 41 43 44 43 43 41 40 40 40 39 38 38 35 34 34 35 34 33 32 33 33 34
88 85 79 78 74 71 76 86 81 79 79 72 67 61 51 50 51 55 59 60 58 53 52 52 50 48 48 47 48 49 48 47 45 44 44 44 44 43 42 43 42 41 39 41 38 37 38 39 39
99 92 89 87 83 77 86 84 83 78 80 80 73 67 59 50 54 60 60 60 62 59 57 56 55 53 51 51 51 52 51 49 49 49 49 50 50 49 48 47 48 47 48 47 47 46 46 45 44
102 96 96 96 93 94 95 90 89 85 84 86 82 72 66 60 59 63 63 66 64 60 61 57 56 56 54 55 54 54 54 54 55 55 55 54 56 56 56 54 53 53 50 48 49 48 47 47 47
107 104 103 106 107 101 105 101 94 91 91 87 87 81 72 69 65 65 71 71 67 61 60 61 58 58 57 57 59 59 58 57 58 59 59 59 58 59 59 58 57 55 54 53 52 50 50 50 49
114 111 111 111 110 109 113 109 105 100 93 93 90 90 83 78 78 74 72 75 67 69 67 61 57 64 66 61 61 61 61 63 66 57 60 65 66 64 63 59 59 60 59 55 55 49 52 54 53
106 105 105 108 109 114 110 114 114 110 105 101 92 91 89 88 90 85 77 77 75 72 67 63 56 50 66 67 67 64 62 60 61 60 65 60 54 53 55 61 67 66 59 62 54 49 54 59 62
64 75 85 93 106 109 111 109 113 110 109 105 103 99 99 102 99 96 89 80 79 78 73 70 72 72 65 59 46 62 67 66 57 61 51 55 45 37 43 44 56 59 64 64 58 56 60 59 64
59 64 68 74 82 90 102 102 103 104 108 106 105 104 108 110 108 103 95 88 83 84 81 78 76 76 69 63 64 66 64 50 69 60 59 59 50 58 67 69 71 67 74 68 68 61 59 65 68
49 48 51 57 66 72 82 93 91 93 103 108 106 105 104 105 106 102 97 94 91 91 88 84 84 81 76 71 62 63 71 84 69 71 61 62 74 71 74 69 73 74 63 62 64 65 60 65 67
53 47 45 48 57 66 76 66 80 85 101 98 105 105 106 103 102 106 103 98 93 93 94 91 88 84 80 81 84 85 77 78 76 69 70 83 83 82 81 81 72 62 55 60 67 75 79 88 79
55 54 61 59 56 54 59 58 68 77 86 95 97 100 103 103 106 105 102 98 94 92 91 93 91 88 83 84 90 88 93 85 85 89 90 89 91 89 81 78 70 60 62 64 74 86 99 98 87
66 70 69 57 59 53 49 52 61 68 72 78 89 92 95 98 97 103 102 98 95 95 93 93 94 91 90 89 91 91 92 91 89 89 88 86 86 81 80 77 75 73 68 72 81 98 99 99 90
76 67 60 59 63 56 49 45 53 58 64 68 75 84 88 93 94 94 98 101 95 97 94 92 92 92 93 93 94 93 94 96 94 95 94 92 91 91 89 87 84 87 91 99 104 104 102 102 92
68 68 62 63 60 58 57 44 46 53 56 63 67 75 82 84 91 88 85 86 96 101 97 93 92 97 95 94 94 95 94 95 99 99 99 100 99 99 96 91 90 92 101 104 104 103 102 89 82
63 58 61 60 63 55 56 42 41 48 52 55 60 67 74 79 82 83 81 76 75 77 83 93 90 94 92 95 96 95 99 100 99 98 99 97 97 94 96 95 99 99 102 104 104 101 88 79 80
68 65 64 62 65 56 55 45 42 46 48 52 55 63 63 71 76 74 73 72 70 70 73 76 85 88 87 86 89 94 96 97 98 99 100 98 96 98 99 99 97 99 100 97 95 93 89 86 83
64 73 70 65 59 58 48 44 40 41 42 46 52 57 57 61 67 70 68 68 66 63 65 66 66 68 80 71 80 74 80 82 88 91 92 91 92 94 97 101 99 95 92 86 87 86 84 82 83
77 73 68 65 59 52 46 42 39 41 45 45 51 55 52 56 64 66 70 67 66 66 62 61 62 60 61 69 70 74 74 75 78 82 86 93 94 94 92 90 89 87 82 77 79 80 80 78 80
72 71 65 64 55 43 47 44 43 48 48 47 52 46 46 52 63 67 65 65 65 66 63 61 61 65 66 69 75 74 76 79 81 83 85 84 83 84 84 82 81 78 75 74 74 74 77 78 79
68 68 64 62 53 50 52 48 45 55 48 46 46 44 45 47 60 67 69 67 66 66 65 64 66 66 67 68 69 72 73 74 76 76 75 74 74 74 74 74 73 72 73 74 75 75 76 77 78
63 62 64 68 61 57 53 48 52 43 42 39 41 44 38 45 55 60 62 66 66 68 67 67 67 67 66 66 65 63 64 67 68 67 67 67 67 67 67 68 69 71 72 72 72 73 75 76 79
65 62 66 62 60 54 51 52 51 45 42 39 41 43 40 40 49 59 59 61 64 66 67 68 68 68 68 67 67 65 64 64 64 65 65 66 67 69 69 69 70 71 71 71 71 72 76 78 81
59 61 62 60 59 53 49 49 51 44 39 39 41 41 42 40 40 50 62 63 61 64 66 68 69 70 70 70 69 69 69 68 68 68 69 70 70 71 70 69 69 70 72 73 73 73 76 76 77
60 60 55 55 52 47 48 48 45 41 38 37 35 35 39 40 42 46 49 60 64 66 72 73 72 71 72 72 73 73 72 72 72 72 74 75 74 72 70 69 69 71 72 74 76 77 73 74 72
Wind_Direction
248 244 248 248 256 264 264 258 247 247 246 248 248 245 247 243 253 255 253 258 260 255 257 255 258 257 261 267 271 269 272 279 286 292 295 294 292 298 309 324 337 334 333 322 316 315 317 324 333
248 251 252 253 259 264 266 265 250 247 249 250 251 251 255 251 245 249 261 259 261 261 263 257 245 252 256 258 263 266 271 275 279 285 288 297 296 289 288 297 314 320 324 325 325 323 324 327 330
248 253 253 256 258 258 259 264 265 255 246 249 248 248 251 255 254 251 253 258 258 254 253 253 254 253 254 253 256 265 269 270 272 278 282 284 286 286 289 286 291 297 305 310 306 310 317 318 319
248 249 249 256 251 250 256 260 260 262 260 256 250 251 250 255 254 254 252 253 258 249 251 253 257 256 259 257 258 262 267 269 270 270 271 275 278 280 281 281 281 286 289 292 294 296 303 308 307
244 248 252 252 252 252 255 261 260 260 259 254 252 247 245 249 252 253 253 252 252 257 255 254 254 257 260 263 264 264 265 268 272 273 272 273 274 274 275 275 276 279 282 284 284 286 289 293 297
255 253 249 251 253 253 254 259 259 260 260 257 256 255 248 244 247 255 256 255 254 255 254 254 253 255 257 261 264 266 268 268 269 271 273 274 276 279 278 277 276 276 279 281 282 286 290 294 299
254 255 254 254 254 257 254 253 256 256 257 257 256 259 258 254 248 253 255 254 256 257 254 256 258 256 258 261 263 266 266 268 270 271 272 274 275 276 276 279 280 279 279 282 283 285 288 292 297
252 253 256 254 251 251 250 250 252 254 256 258 259 255 253 247 250 252 255 257 256 257 257 257 258 261 264 263 264 267 270 269 271 272 273 275 276 276 275 275 276 277 279 281 284 288 291 291 290
256 256 255 252 252 250 250 249 251 251 254 260 260 257 258 253 246 252 252 253 255 258 259 259 262 264 269 269 270 271 270 273 276 277 278 278 279 277 274 273 274 276 277 277 281 283 284 286 287
253 253 252 253 252 252 253 251 251 252 254 253 257 255 258 255 251 248 248 249 255 260 264 263 264 264 266 269 267 268 269 269 269 272 276 278 275 275 274 273 272 272 273 275 276 277 281 282 283
253 252 253 254 254 253 255 255 253 253 252 254 254 257 256 255 249 242 242 248 248 257 264 261 263 263 264 268 268 269 273 276 272 271 276 277 277 276 272 273 274 275 273 273 276 278 281 281 281
251 251 254 249 253 253 251 252 253 252 250 251 251 253 251 250 252 250 242 241 245 251 256 257 263 256 266 265 268 270 270 269 268 279 279 272 279 271 272 275 274 274 274 282 278 282 286 284 284
250 248 247 248 249 249 251 252 251 251 250 248 251 250 249 251 252 252 251 242 246 246 247 251 254 258 263 268 270 270 267 264 269 273 260 262 274 275 279 275 281 273 268 273 274 278 281 287 292
256 253 252 246 246 246 248 248 249 249 249 248 245 247 248 251 252 252 249 246 241 244 245 247 249 253 255 253 250 267 265 257 274 274 258 255 269 277 284 282 282 274 273 270 270 275 280 287 290
254 261 264 265 259 251 248 245 248 247 245 247 246 242 244 247 247 247 248 246 247 245 246 245 247 248 253 254 255 260 252 255 263 262 257 254 271 280 279 282 285 276 269 266 262 271 277 283 287
259 260 268 266 256 256 252 248 246 246 246 244 242 242 240 241 244 247 248 246 244 245 247 247 247 244 247 249 248 247 256 258 258 260 258 263 268 274 277 280 277 262 259 261 267 274 279 289 289
264 264 257 256 258 265 265 252 252 249 245 244 243 242 242 241 241 242 244 244 243 245 245 245 248 247 245 243 248 253 256 257 258 259 263 264 267 269 274 276 268 251 253 258 276 282 287 293 292
255 253 259 260 261 265 270 261 256 252 248 247 243 241 241 242 243 243 242 243 244 244 245 245 246 247 244 245 247 248 254 258 258 261 263 266 267 267 266 269 268 254 255 264 271 284 290 290 289
260 258 258 257 257 262 265 267 263 259 250 247 245 241 238 239 241 243 244 243 244 246 247 247 248 247 247 247 249 249 252 256 258 258 260 262 267 269 268 267 263 261 262 269 276 280 283 288 285
263 260 259 259 257 260 261 263 268 267 256 248 244 242 239 238 239 241 243 244 245 245 246 247 247 248 248 249 251 252 253 255 255 256 260 263 265 268 271 271 270 267 270 272 277 280 282 281 279
260 261 255 252 254 255 259 261 271 268 265 252 247 243 240 238 238 239 241 243 244 245 247 246 247 247 250 251 252 254 254 254 255 257 260 262 264 264 267 269 269 270 271 273 276 279 278 280 280
258 257 252 251 253 256 257 256 270 270 270 259 251 244 240 237 235 237 240 243 245 246 245 247 248 249 248 247 249 251 254 253 254 255 258 260 263 266 269 270 272 272 274 277 277 279 280 281 279
250 249 251 246 246 250 256 257 267 266 272 263 255 245 242 237 233 235 236 239 242 244 246 248 249 251 251 254 253 251 252 253 255 255 257 261 263 265 267 267 272 273 275 276 278 279 281 281 279
247 247 249 246 247 248 256 256 259 263 266 262 252 246 242 237 230 236 237 236 238 240 241 242 245 243 249 246 250 251 253 256 257 260 262 264 265 267 269 269 271 273 274 275 277 278 278 278 279
246 248 247 247 250 251 251 253 251 256 257 258 252 252 244 237 232 230 235 235 237 238 239 239 240 241 244 248 249 252 254 256 257 258 260 260 261 263 264 266 268 271 273 274 275 278 281 283 285
241 242 241 244 247 245 245 246 248 251 258 264 264 253 248 238 236 233 233 235 236 238 240 242 245 248 249 251 251 252 254 254 255 257 258 259 260 262 263 265 266 268 271 273 276 279 281 283 286
234 236 238 239 242 239 241 248 253 260 259 262 255 244 244 243 236 237 238 241 241 241 242 244 246 247 248 250 251 252 252 253 255 256 258 261 263 265 266 268 269 272 274 275 277 280 284 287 290
226 228 233 239 243 245 243 248 257 255 253 254 245 239 235 243 243 240 238 241 243 245 246 247 249 251 253 254 255 256 256 258 259 259 261 263 266 266 268 271 274 275 275 278 280 285 288 290 292
226 231 233 233 234 238 240 246 249 250 246 247 237 235 232 235 237 242 239 240 244 248 250 251 251 252 253 255 257 259 259 260 261 263 264 265 267 269 271 274 275 275 277 281 283 286 287 288 292
224 226 226 228 232 229 235 238 243 245 239 232 227 231 233 236 238 232 239 239 240 242 247 250 251 253 256 258 259 260 261 262 263 265 267 269 270 273 276 276 275 275 278 280 285 287 284 288 290
Height
10956 10960 10964 10968 10970 10970 10966 10967 10973 10973 10978 10981 10983 10984 10984 10993 10998 10998 10995 10995 10996 10999 10999 10998 10998 10999 10999 11000 11002 11003 11003 11003 11003 11003 11003 11002 11002 11002 11002 11000 11000 10998 10996 10995 10995 10993 10992 10990 10988
10945 10952 10956 10962 10964 10965 10955 10957 10960 10967 10974 10974 10977 10981 10983 10988 10991 10992 10989 10991 10990 10994 10995 10996 10995 10996 10996 10996 10997 10998 10999 10999 10999 10999 11000 10999 10998 10998 10997 10997 10997 10996 10995 10993 10992 10991 10989 10989 10987
10936 10940 10944 10952 10957 10958 10946 10945 10943 10960 10967 10968 10970 10975 10978 10982 10984 10987 10984 10986 10987 10987 10989 10990 10991 10990 10992 10992 10993 10993 10993 10993 10994 10994 10995 10994 10994 10993 10994 10993 10992 10993 10991 10991 10990 10989 10987 10985 10984
10927 10929 10934 10941 10946 10945 10940 10934 10929 10945 10955 10962 10966 10970 10977 10977 10977 10978 10978 10979 10981 10978 10984 10985 10985 10985 10988 10988 10988 10988 10987 10987 10987 10988 10989 10989 10990 10989 10989 10988 10987 10986 10986 10985 10985 10984 10983 10982 10981
10915 10919 10925 10933 10935 10933 10929 10918 10915 10930 10941 10950 10956 10963 10968 10970 10971 10968 10967 10971 10973 10975 10975 10978 10979 10979 10981 10982 10982 10982 10982 10982 10982 10982 10983 10984 10984 10984 10984 10983 10982 10982 10980 10979 10979 10978 10977 10976 10976
10898 10905 10915 10921 10921 10920 10920 10901 10896 10920 10929 10939 10946 10956 10960 10964 10964 10960 10957 10959 10962 10968 10969 10969 10971 10971 10972 10973 10974 10975 10975 10976 10977 10977 10977 10977 10978 10979 10978 10977 10976 10976 10975 10974 10974 10974 10974 10973 10971
10880 10889 10902 10906 10908 10910 10898 10877 10894 10903 10911 10925 10934 10945 10954 10957 10957 10953 10949 10950 10953 10957 10961 10962 10962 10963 10964 10965 10967 10968 10968 10969 10970 10971 10971 10971 10971 10971 10971 10971 10971 10970 10969 10969 10968 10968 10969 10968 10968
10861 10875 10888 10892 10890 10891 10868 10874 10879 10894 10897 10911 10924 10934 10941 10944 10946 10944 10941 10940 10943 10947 10949 10951 10953 10955 10958 10958 10960 10960 10961 10962 10963 10963 10962 10962 10962 10963 10962 10962 10962 10962 10962 10962 10962 10961 10961 10960 10959
10846 10863 10867 10865 10867 10857 10850 10863 10870 10881 10882 10895 10910 10918 10926 10932 10933 10934 10935 10930 10930 10937 10940 10943 10947 10949 10949 10951 10952 10951 10952 10952 10953 10953 10952 10953 10953 10953 10952 10952 10952 10954 10953 10953 10953 10951 10950 10949 10948
10830 10839 10842 10839 10845 10844 10829 10850 10859 10867 10869 10877 10890 10900 10911 10919 10920 10924 10920 10920 10922 10929 10934 10937 10939 10939 10940 10940 10939 10940 10941 10941 10940 10941 10943 10943 10942 10942 10942 10943 10943 10943 10944 10943 10943 10941 10939 10938 10937
10805 10819 10816 10821 10822 10822 10808 10832 10842 10852 10856 10859 10872 10882 10890 10896 10895 10900 10909 10907 10920 10916 10919 10925 10926 10925 10928 10929 10930 10929 10930 10929 10929 10928 10930 10930 10929 10928 10932 10933 10934 10934 10933 10933 10932 10930 10929 10929 10927
10786 10791 10791 10791 10796 10798 10790 10800 10822 10831 10840 10842 10851 10859 10869 10868 10870 10873 10891 10900 10905 10909 10909 10911 10907 10913 10918 10921 10922 10920 10920 10919 10918 10917 10919 10918 10916 10916 10920 10920 10923 10924 10925 10923 10920 10919 10919 10918 10915
10767 10761 10767 10772 10777 10779 10767 10780 10793 10811 10819 10823 10831 10840 10835 10842 10851 10854 10866 10888 10892 10896 10898 10900 10897 10904 10910 10914 10906 10905 10905 10907 10909 10908 10908 10907 10905 10903 10905 10907 10909 10910 10911 10911 10910 10907 10906 10905 10904
10746 10747 10751 10754 10757 10754 10750 10758 10770 10783 10791 10803 10812 10813 10813 10816 10823 10837 10846 10864 10876 10878 10885 10889 10886 10891 10898 10903 10895 10893 10894 10895 10896 10897 10895 10895 10896 10897 10896 10894 10894 10896 10897 10896 10896 10895 10892 10890 10891
10729 10737 10738 10740 10740 10736 10728 10747 10756 10753 10765 10777 10792 10792 10787 10795 10802 10810 10825 10840 10854 10858 10867 10871 10874 10878 10881 10887 10883 10880 10879 10883 10883 10885 10885 10886 10884 10883 10882 10880 10880 10879 10879 10879 10881 10881 10881 10880 10877
10716 10721 10727 10721 10716 10713 10710 10745 10733 10732 10738 10753 10762 10773 10768 10777 10784 10782 10802 10817 10831 10839 10847 10850 10855 10865 10869 10867 10865 10865 10866 10871 10868 10871 10871 10872 10870 10871 10870 10867 10864 10866 10864 10867 10868 10864 10864 10863 10863
10702 10708 10704 10701 10701 10703 10707 10722 10714 10713 10719 10729 10741 10753 10754 10757 10760 10766 10780 10797 10808 10818 10826 10830 10834 10845 10852 10852 10846 10848 10848 10855 10858 10854 10856 10855 10857 10859 10858 10857 10856 10855 10851 10850 10848 10845 10847 10845 10849
10678 10677 10684 10694 10687 10691 10695 10702 10696 10695 10703 10710 10719 10730 10736 10738 10742 10751 10764 10777 10787 10796 10803 10811 10818 10825 10830 10832 10830 10836 10835 10837 10842 10841 10839 10837 10838 10840 10845 10845 10840 10840 10837 10835 10834 10834 10833 10831 10828
10657 10667 10674 10675 10671 10676 10683 10685 10681 10679 10688 10695 10701 10705 10715 10722 10726 10734 10747 10761 10773 10778 10783 10792 10799 10801 10803 10808 10813 10822 10824 10825 10828 10823 10822 10819 10821 10821 10826 10827 10829 10828 10824 10821 10822 10822 10819 10816 10815
10643 10651 10660 10659 10658 10662 10665 10672 10670 10666 10672 10678 10683 10687 10696 10706 10712 10724 10732 10745 10752 10758 10767 10774 10775 10776 10781 10791 10797 10802 10807 10808 10806 10807 10806 10806 10807 10807 10803 10806 10811 10814 10808 10807 10806 10802 10801 10799 10797
10632 10637 10639 10644 10637 10649 10651 10660 10660 10657 10657 10663 10667 10670 10678 10689 10701 10711 10718 10726 10732 10741 10747 10752 10756 10758 10770 10777 10781 10783 10786 10787 10789 10792 10791 10789 10789 10789 10789 10790 10791 10791 10790 10790 10788 10785 10781 10776 10775
10616 10616 10619 10624 10623 10635 10637 10648 10648 10647 10645 10648 10650 10653 10665 10676 10685 10695 10702 10708 10718 10724 10727 10732 10738 10742 10749 10755 10760 10763 10768 10767 10769 10773 10771 10773 10771 10772 10770 10772 10772 10773 10773 10771 10768 10767 10764 10761 10758
10598 10592 10601 10602 10610 10615 10628 10636 10637 10637 10635 10633 10633 10640 10650 10661 10670 10678 10686 10693 10702 10707 10711 10719 10721 10726 10732 10733 10740 10744 10746 10747 10749 10750 10755 10757 10757 10756 10753 10754 10755 10755 10754 10752 10752 10749 10747 10745 10741
10569 10572 10582 10587 10595 10608 10616 10623 10626 10624 10621 10619 10615 10623 10641 10648 10655 10662 10672 10680 10687 10691 10699 10706 10706 10713 10712 10716 10719 10723 10726 10728 10728 10731 10736 10739 10739 10739 10738 10738 10738 10738 10738 10737 10735 10733 10732 10730 10726
10549 10556 10569 10576 10587 10603 10603 10609 10613 10606 10608 10607 10603 10621 10629 10634 10641 10648 10656 10666 10674 10681 10686 10691 10692 10695 10696 10700 10705 10709 10710 10712 10715 10717 10718 10722 10721 10721 10723 10723 10723 10723 10722 10721 10718 10715 10712 10709 10706
10530 10537 10554 10566 10575 10584 10587 10595 10599 10589 10601 10601 10604 10612 10616 10623 10628 10635 10642 10650 10658 10665 10671 10675 10679 10683 10687 10689 10691 10694 10696 10698 10700 10701 10702 10702 10703 10705 10706 10707 10708 10708 10706 10705 10703 10700 10697 10694 10690
10515 10525 10539 10544 10556 10564 10575 10582 10578 10590 10592 10595 10597 10603 10605 10609 10615 10624 10634 10639 10645 10651 10655 10661 10665 10667 10669 10672 10675 10679 10681 10682 10684 10686 10686 10686 10688 10689 10690 10692 10692 10690 10689 10687 10686 10682 10677 10673 10668
10492 10511 10518 10535 10547 10556 10563 10567 10568 10578 10582 10585 10587 10591 10597 10600 10605 10612 10619 10624 10630 10636 10641 10646 10649 10652 10655 10658 10661 10664 10666 10668 10670 10671 10672 10673 10673 10674 10676 10678 10676 10673 10671 10669 10668 10664 10658 10651 10643
10488 10497 10508 10520 10531 10542 10551 10555 10553 10564 10570 10572 10575 10581 10588 10590 10596 10599 10604 10612 10619 10622 10625 10628 10632 10636 10640 10643 10647 10650 10652 10654 10655 10657 10657 10657 10657 10658 10661 10662 10659 10656 10653 10651 10650 10648 10642 10635 10630
10472 10485 10500 10509 10521 10530 10536 10539 10544 10550 10557 10563 10568 10573 10578 10582 10584 10588 10594 10602 10606 10607 10607 10609 10616 10622 10626 10630 10633 10635 10637 10639 10639 10639 10638 10639 10640 10643 10645 10645 10641 10638 10636 10635 10632 10629 10624 10620 10613